User: anonymous   Login
Location: *
(40.7765°S, 106.5327°E)
Time: 08:10:42
(UTC+00:00)
Language:

RESURS DK-1 - Orbit

View from above orbital plane
View from above orbital plane
View from above satellite
View from above satellite

Ground track
Ground track

The orbit data is extracted from the following two-line orbital elements,

1 29228U 06021A   22228.70219017  .00000949  00000-0  76999-4 0  9991
2 29228  69.9370 335.4580 0006553 305.6056  54.4494 15.03351008891432
Epoch (UTC): 16 August 2022 16:51:09
Eccentricity: 0.0006553
inclination: 69.9370°
perigee height: 552 km
apogee height: 561 km
right ascension of ascending node: 335.4580°
argument of perigee: 305.6056°
revolutions per day: 15.03351008
mean anomaly at epoch: 54.4494°
orbit number at epoch: 89143

The dashed part of the orbit path shows where the satellite is in the earth's shadow,  

DLR